Regional Weather Roundup
Issued by NWS

Home | Current Version | Previous Version | Graphics & Text | Print | Product List | Glossary Off
Versions: 1 2 3 4 5 6 7 8 9 10 11 12 13 14 15 16 17 18 19 20 21 22 23 24 25 26 27 28 29 30 31 32 33 34 35 36 37 38 39 40 41 42 43 44 45 46 47 48 49 50

000
ASUS43 KMPX 010101
RWRMN
WEATHER ROUNDUP FOR MINNESOTA
NATIONAL WEATHER SERVICE TWIN CITIES/CHANHASSEN MN
800 PM CDT FRI SEP 30 2016


NOTE: "FAIR" INDICATES FEW OR NO CLOUDS BELOW 12,000 FEET WITH NO
SIGNIFICANT WEATHER AND/OR OBSTRUCTIONS TO VISIBILITY. N/A MEANS
CURRENT SKY AND/OR WEATHER CONDITIONS ARE NOT AVAILABLE.

MNZ060>063-068>070-010200-
   Twin Cities Metro

CITY           SKY/WX    TMP DP  RH WIND       PRES   REMARKS
TWIN CITIES    PTCLDY    63  51  65 NE7       30.21S
ST PAUL        MOCLDY    62  54  74 CALM      30.22S
CRYSTAL        CLEAR     60  50  69 N5        30.21S
BLAINE         CLEAR     63  54  72 NE6       30.22S
LAKEVILLE      MOCLDY    59  52  77 CALM      30.21S
EDEN PRAIRIE   CLEAR     64  49  57 N3        30.20S
LAKEVILLE      MOCLDY    59  52  77 CALM      30.21S
SOUTH ST PAUL  CLOUDY    65  51  62 CALM      30.21S
LAKE ELMO      FAIR      61  52  72 N3        30.23S
$$
MNZ001>005-007-008-013>017-022>024-027-028-010200-
   Northwest Minnesota

CITY           SKY/WX    TMP DP  RH WIND       PRES   REMARKS
BEMIDJI        CLOUDY    49  49  98 CALM      30.26F
HALLOCK        CLOUDY   N/A N/A N/A E9        30.20F
ROSEAU         PTCLDY    55  52  88 E5        30.25F
WARROAD        PTCLDY    55  52  88 E8        30.27F
THIEF RVR FALL CLEAR     58  52  80 SE12      30.24S
CROOKSTON      PTCLDY    54  48  82 SE8       30.22S
FOSSTON        CLEAR     54  46  76 E5        30.25F
DETROIT LAKES  CLOUDY    59  50  72 SE7       30.25S
MOORHEAD       PTCLDY    61  50  67 SE7       30.21F
PARK RAPIDS    CLEAR     59  48  67 CALM      30.26S
MAHNOMEN       FAIR      55  48  80 SE6       30.24S
$$
MNZ006-009>011-018-025>026-010200-
   North Central Minnesota

CITY           SKY/WX    TMP DP  RH WIND       PRES   REMARKS
FLAG ISLAND    CLOUDY    54  52  94 SE12      30.27F
INTL FALLS     CLEAR     45  44  97 CALM      30.30F
WASKISH        PTCLDY    52  48  87 E3        30.28F
BIG FORK       CLEAR     48  46  93 CALM      30.29F
GRAND RAPIDS   CLEAR     57  47  69 SE6       30.30F
CRANE LAKE     CLEAR     48  46  93 CALM      30.32F
ORR            CLEAR     52  48  87 CALM      30.27F
COOK           CLEAR     52  50  93 CALM      30.31S
WALKER         FAIR      51  50  98 CALM      30.26F FOG
$$
MNZ012-019>021-037-010200-
   Northeast Minnesota

CITY           SKY/WX    TMP DP  RH WIND       PRES   REMARKS
DULUTH         CLOUDY    52  51  97 E10       30.30F FOG
ELY            CLEAR     55  46  71 SE3       30.32S
HIBBING        CLEAR     50  46  86 SE5       30.30S
EVELETH        CLEAR     53  46  78 CALM      30.32S
DULUTH HARBOR  CLOUDY    54  52  94 NE15      30.32S
TWO HARBORS    CLOUDY    55  50  82 NE5       30.30F
SILVER BAY     CLEAR     52  50  93 CALM      30.30F
GRAND MARAIS     N/A     52  51  97 NE5       30.32F
G MARAIS ARPRT CLEAR     52  43  71 NE5       30.35F
$$
MNZ029>031-032-039>041-046>048-054>057-064-010200-
   West Central Minnesota

CITY           SKY/WX    TMP DP  RH WIND       PRES   REMARKS
FERGUS FALLS   PTCLDY    61  46  59 E9        30.24S
MORRIS         PTCLDY    54  46  76 E7        30.20F
ALEXANDRIA     CLEAR     56  51  84 E7        30.24F
ELBOW LAKE     FAIR      58  50  73 SE8       30.23S
WADENA         CLEAR     55  48  76 CALM      30.25S
GLENWOOD       CLEAR     55  48  76 NE6       30.23F
BENSON         CLEAR     59  46  63 E5        30.21F
ORTONVILLE     CLOUDY    61  46  59 E9        30.19F
MADISON        CLOUDY    61  46  59 E5        30.20S
WILLMAR        FAIR      59  48  67 E6        30.23S
$$
MNZ033>034-036-042>043-049>051-058-059-010200-
   Central Minnesota

CITY           SKY/WX    TMP DP  RH WIND       PRES   REMARKS
ST CLOUD       CLEAR     59  53  80 NE3       30.23S
SAUK CENTRE    FAIR      57  47  70 CALM      30.23F
PAYNESVILLE    CLEAR     55  48  79 CALM      30.23F
AITKIN         CLEAR     55  46  71 E3        30.27S
PINE RIVER     CLEAR     55  48  76 E5        30.29S
BRAINERD       CLEAR     56  46  69 E7        30.26F
STAPLES        CLEAR     54  46  76 CALM      30.25F
LONG PRAIRIE   FAIR      54  50  87 CALM      30.24F
LITTLE FALLS   CLEAR     55  48  76 CALM      30.24F
LITCHFIELD     CLEAR     61  52  72 CALM      30.22F
BUFFALO        CLEAR     61  49  65 NE3       30.23S
MAPLE LAKE     CLEAR     56  53  90 N3        30.23F
HUTCHINSON     CLOUDY    61  51  70 NE3       30.22F
$$
MNZ037-044-045-052-053-010200-
   East Central Minnesota

CITY           SKY/WX    TMP DP  RH WIND       PRES   REMARKS
PRINCETON      CLEAR     63  54  72 N6        30.24S
MORA           CLEAR     54  46  76 NE5       30.27F
CAMBRIDGE      CLEAR     63  52  67 N6        30.23S
MOOSE LAKE     CLOUDY    52  50  93 NE6       30.26F
HINCKLEY       FAIR      54  52  94 NE6       30.27S
CLOQUET        CLOUDY    52  48  87 E7        30.30F
MCGREGOR       CLEAR     52  48  87 E5        30.29S
$$
MNZ071>073-080-081-089-090-097-098-010200-
   Southwest Minnesota

CITY           SKY/WX    TMP DP  RH WIND       PRES   REMARKS
MONTEVIDEO     CLEAR     57  46  67 SE6       30.22S
GRANITE FALLS  CLEAR     63  49  59 E6        30.21F
CANBY          CLEAR     58  46  63 CALM      30.20F
MARSHALL       CLEAR     62  47  57 E6        30.19F
REDWOOD FALLS  CLEAR     63  47  55 E6        30.20S
OLIVIA         CLEAR     61  46  59 E5        30.21S
PIPESTONE      CLEAR     61  45  55 E6        30.19S
WINDOM         CLEAR     57  50  77 CALM      30.20F
WORTHINGTON    CLEAR     56  48  74 E6        30.20F
JACKSON        CLOUDY    64  50  59 E6        30.20F
TRACY          CLEAR     58  49  71 SE3       30.20F
$$
MNZ065>067-074>077-082>085-091>093-010200-
   South Central Minnesota

CITY           SKY/WX    TMP DP  RH WIND       PRES   REMARKS
MANKATO        CLEAR     62  52  69 NE7       30.21S
NEW ULM        CLEAR     63  52  67 E3        30.21S
ST JAMES       CLEAR     59  52  77 CALM      30.21S
FAIRMONT       CLOUDY    65  53  65 N3        30.20S
GLENCOE        CLEAR     60  53  78 CALM      30.21S
FARIBAULT      CLOUDY    61  55  82 CALM      30.21S
OWATONNA       CLOUDY    64  52  63 NE3       30.20S
WASECA         CLOUDY    63  50  63 N6        30.21S
ALBERT LEA     CLOUDY    64  54  68 E3        30.20S
$$
MNZ078>079-086>088-094>096-010200-
   Southeast Minnesota

CITY           SKY/WX    TMP DP  RH WIND       PRES   REMARKS
ROCHESTER      CLOUDY    63  56  78 E5        30.21S
RED WING       MOCLDY    63  52  67 NE3       30.18F
DODGE CENTER   CLOUDY    64  52  63 NE5       30.20F
WINONA         CLOUDY    63  55  77 CALM      30.20F
AUSTIN         CLOUDY    63  55  77 CALM      30.19S
PRESTON        CLOUDY    61  54  77 E3        30.21S
$$
ABBREVIATIONS USED IN REMARKS
   TC - TEMPERATURES IN CELSIUS
  WCI - WIND CHILL INDEX
   HX - HEAT INDEX
  VSB - VISIBILITY
$$




USA.gov is the U.S. government's official web portal to all federal, state and local government web resources and services.